Time,TemperatureF,DewpointF,PressureIn,WindDirection,WindDirectionDegrees,WindSpeedMPH,WindSpeedGustMPH,Humidity,HourlyPrecipIn,Conditions,Clouds,dailyrainin,SoftwareType,DateUTC
2013-01-29 00:04:00,57.0,-99.9,-100.00,South,175,7.0,9.0,-999,-99.99,,,-99.99,,2013-01-29 05:04:00,
2013-01-29 00:12:00,57.0,-99.9,-100.00,South,175,8.0,9.0,-999,-99.99,,,-99.99,,2013-01-29 05:12:00,
2013-01-29 00:22:00,57.0,-99.9,-100.00,South,175,8.0,9.0,-999,-99.99,,,-99.99,,2013-01-29 05:22:00,
2013-01-29 00:32:00,58.0,-99.9,-100.00,South,175,7.0,9.0,-999,-99.99,,,-99.99,,2013-01-29 05:32:00,
2013-01-29 00:43:00,57.0,-99.9,-100.00,South,175,6.0,9.0,-999,-99.99,,,-99.99,,2013-01-29 05:43:00,
2013-01-29 00:52:00,57.0,-99.9,-100.00,South,175,6.0,8.0,-999,-99.99,,,-99.99,,2013-01-29 05:52:00,
2013-01-29 01:02:00,56.0,-99.9,-100.00,SSE,165,5.0,7.0,-999,-99.99,,,-99.99,,2013-01-29 06:02:00,
2013-01-29 01:11:00,57.0,-99.9,-100.00,South,175,6.0,8.0,-999,-99.99,,,-99.99,,2013-01-29 06:11:00,
2013-01-29 01:22:00,57.0,-99.9,-100.00,South,180,6.0,9.0,-999,-99.99,,,-99.99,,2013-01-29 06:22:00,
2013-01-29 01:32:00,57.0,-99.9,-100.00,South,185,5.0,8.0,-999,-99.99,,,-99.99,,2013-01-29 06:32:00,
2013-01-29 01:42:00,57.0,-99.9,-100.00,South,185,5.0,6.0,-999,-99.99,,,-99.99,,2013-01-29 06:42:00,
2013-01-29 01:52:00,56.0,-99.9,-100.00,South,180,4.0,6.0,-999,-99.99,,,-99.99,,2013-01-29 06:52:00,
2013-01-29 02:02:00,56.0,-99.9,-100.00,South,180,4.0,5.0,-999,-99.99,,,-99.99,,2013-01-29 07:02:00,
2013-01-29 02:11:00,56.0,-99.9,-100.00,South,180,4.0,5.0,-999,-99.99,,,-99.99,,2013-01-29 07:11:00,
2013-01-29 02:21:00,56.0,-99.9,-100.00,SSE,160,1.0,4.0,-999,-99.99,,,-99.99,,2013-01-29 07:21:00,
2013-01-29 02:32:00,56.0,-99.9,-100.00,SE,130,1.0,4.0,-999,-99.99,,,-99.99,,2013-01-29 07:32:00,
2013-01-29 02:42:00,56.0,-99.9,-100.00,SSE,155,2.0,5.0,-999,-99.99,,,-99.99,,2013-01-29 07:42:00,
2013-01-29 02:52:00,56.0,-99.9,-100.00,South,180,2.0,4.0,-999,-99.99,,,-99.99,,2013-01-29 07:52:00,
2013-01-29 03:02:00,56.0,-99.9,-100.00,South,180,2.0,3.0,-999,-99.99,,,-99.99,,2013-01-29 08:02:00,
2013-01-29 03:11:00,57.0,-99.9,-100.00,South,180,3.0,4.0,-999,-99.99,,,-99.99,,2013-01-29 08:11:00,
2013-01-29 03:21:00,56.0,-99.9,-100.00,East,85,0.0,4.0,-999,-99.99,,,-99.99,,2013-01-29 08:21:00,
2013-01-29 03:32:00,54.0,-99.9,-100.00,NW,325,3.0,4.0,-999,-99.99,,,-99.99,,2013-01-29 08:32:00,
2013-01-29 03:42:00,54.0,-99.9,-100.00,NW,325,4.0,5.0,-999,-99.99,,,-99.99,,2013-01-29 08:42:00,
2013-01-29 03:52:00,54.0,-99.9,-100.00,NW,320,5.0,6.0,-999,-99.99,,,-99.99,,2013-01-29 08:52:00,
2013-01-29 04:02:00,55.0,-99.9,-100.00,NW,320,5.0,6.0,-999,-99.99,,,-99.99,,2013-01-29 09:02:00,
2013-01-29 04:11:00,54.0,-99.9,-100.00,NNW,330,4.0,6.0,-999,-99.99,,,-99.99,,2013-01-29 09:11:00,
2013-01-29 04:22:00,53.0,-99.9,-100.00,NNW,340,1.0,4.0,-999,-99.99,,,-99.99,,2013-01-29 09:22:00,
2013-01-29 04:32:00,52.0,-99.9,-100.00,NNW,340,1.0,2.0,-999,-99.99,,,-99.99,,2013-01-29 09:32:00,
2013-01-29 04:42:00,51.0,-99.9,-100.00,NNW,340,1.0,2.0,-999,-99.99,,,-99.99,,2013-01-29 09:42:00,
2013-01-29 04:52:00,52.0,-99.9,-100.00,NW,320,3.0,4.0,-999,-99.99,,,-99.99,,2013-01-29 09:52:00,
2013-01-29 05:02:00,52.0,-99.9,-100.00,NW,320,2.0,4.0,-999,-99.99,,,-99.99,,2013-01-29 10:02:00,
2013-01-29 05:11:00,52.0,-99.9,-100.00,NW,305,3.0,4.0,-999,-99.99,,,-99.99,,2013-01-29 10:11:00,
2013-01-29 05:22:00,52.0,-99.9,-100.00,NW,305,3.0,4.0,-999,-99.99,,,-99.99,,2013-01-29 10:22:00,
2013-01-29 05:32:00,52.0,-99.9,-100.00,NW,325,2.0,4.0,-999,-99.99,,,-99.99,,2013-01-29 10:32:00,
2013-01-29 05:42:00,52.0,-99.9,-100.00,WNW,295,2.0,3.0,-999,-99.99,,,-99.99,,2013-01-29 10:42:00,
2013-01-29 05:52:00,52.0,-99.9,-100.00,NW,320,1.0,3.0,-999,-99.99,,,-99.99,,2013-01-29 10:52:00,
2013-01-29 06:02:00,53.0,-99.9,-100.00,NW,305,1.0,3.0,-999,-99.99,,,-99.99,,2013-01-29 11:02:00,
2013-01-29 06:12:00,52.0,-99.9,-100.00,NNE,15,1.0,6.0,-999,-99.99,,,-99.99,,2013-01-29 11:12:00,
2013-01-29 06:22:00,53.0,-99.9,-100.00,North,10,1.0,6.0,-999,-99.99,,,-99.99,,2013-01-29 11:22:00,
2013-01-29 06:32:00,53.0,-99.9,-100.00,NE,50,1.0,6.0,-999,-99.99,,,-99.99,,2013-01-29 11:32:00,
2013-01-29 06:42:00,52.0,-99.9,-100.00,ENE,70,1.0,6.0,-999,-99.99,,,-99.99,,2013-01-29 11:42:00,
2013-01-29 06:53:00,50.0,-99.9,-100.00,NNE,30,1.0,4.0,-999,-99.99,,,-99.99,,2013-01-29 11:53:00,
2013-01-29 07:03:00,50.0,-99.9,-100.00,NE,55,3.0,10.0,-999,-99.99,,,-99.99,,2013-01-29 12:03:00,
2013-01-29 07:12:00,50.0,-99.9,-100.00,ENE,70,4.0,7.0,-999,-99.99,,,-99.99,,2013-01-29 12:12:00,
2013-01-29 07:22:00,50.0,-99.9,-100.00,ENE,70,4.0,9.0,-999,-99.99,,,-99.99,,2013-01-29 12:22:00,
2013-01-29 07:33:00,51.0,-99.9,-100.00,East,95,3.0,8.0,-999,-99.99,,,-99.99,,2013-01-29 12:33:00,
2013-01-29 07:43:00,51.0,-99.9,-100.00,NE,45,1.0,7.0,-999,-99.99,,,-99.99,,2013-01-29 12:43:00,
2013-01-29 07:53:00,51.0,-99.9,-100.00,ENE,65,3.0,6.0,-999,-99.99,,,-99.99,,2013-01-29 12:53:00,
2013-01-29 08:02:00,50.0,-99.9,-100.00,ENE,65,1.0,6.0,-999,-99.99,,,-99.99,,2013-01-29 13:02:00,
2013-01-29 08:12:00,52.0,-99.9,-100.00,East,90,3.0,7.0,-999,-99.99,,,-99.99,,2013-01-29 13:12:00,
2013-01-29 08:23:00,50.0,-99.9,-100.00,NNW,340,1.0,5.0,-999,-99.99,,,-99.99,,2013-01-29 13:23:00,
2013-01-29 08:32:00,51.0,-99.9,-100.00,East,80,1.0,4.0,-999,-99.99,,,-99.99,,2013-01-29 13:32:00,
2013-01-29 08:43:00,53.0,-99.9,-100.00,East,100,2.0,8.0,-999,-99.99,,,-99.99,,2013-01-29 13:43:00,
2013-01-29 08:53:00,53.0,-99.9,-100.00,East,100,2.0,8.0,-999,-99.99,,,-99.99,,2013-01-29 13:53:00,
2013-01-29 09:02:00,53.0,-99.9,-100.00,East,100,1.0,7.0,-999,-99.99,,,-99.99,,2013-01-29 14:02:00,
2013-01-29 09:13:00,53.0,-99.9,-100.00,ESE,105,3.0,8.0,-999,-99.99,,,-99.99,,2013-01-29 14:13:00,
2013-01-29 09:22:00,53.0,-99.9,-100.00,East,90,2.0,9.0,-999,-99.99,,,-99.99,,2013-01-29 14:22:00,
2013-01-29 09:33:00,53.0,-99.9,-100.00,East,90,3.0,9.0,-999,-99.99,,,-99.99,,2013-01-29 14:33:00,
2013-01-29 09:43:00,53.0,-99.9,-100.00,East,85,4.0,9.0,-999,-99.99,,,-99.99,,2013-01-29 14:43:00,
2013-01-29 09:53:00,53.0,-99.9,-100.00,East,85,4.0,9.0,-999,-99.99,,,-99.99,,2013-01-29 14:53:00,
2013-01-29 10:03:00,55.0,-99.9,-100.00,South,170,2.0,7.0,-999,-99.99,,,-99.99,,2013-01-29 15:03:00,
2013-01-29 10:12:00,56.0,-99.9,-100.00,SW,225,3.0,9.0,-999,-99.99,,,-99.99,,2013-01-29 15:12:00,
2013-01-29 10:22:00,56.0,-99.9,-100.00,ENE,70,2.0,9.0,-999,-99.99,,,-99.99,,2013-01-29 15:22:00,
2013-01-29 10:33:00,58.0,-99.9,-100.00,North,5,2.0,9.0,-999,-99.99,,,-99.99,,2013-01-29 15:33:00,
2013-01-29 10:43:00,59.0,-99.9,-100.00,West,260,3.0,6.0,-999,-99.99,,,-99.99,,2013-01-29 15:43:00,
2013-01-29 10:53:00,60.0,-99.9,-100.00,ESE,110,1.0,6.0,-999,-99.99,,,-99.99,,2013-01-29 15:53:00,
2013-01-29 11:03:00,62.0,-99.9,-100.00,SSE,160,2.0,9.0,-999,-99.99,,,-99.99,,2013-01-29 16:03:00,
2013-01-29 11:13:00,64.0,-99.9,-100.00,South,175,4.0,8.0,-999,-99.99,,,-99.99,,2013-01-29 16:13:00,
2013-01-29 11:23:00,65.0,-99.9,-100.00,SSW,200,6.0,10.0,-999,-99.99,,,-99.99,,2013-01-29 16:23:00,
2013-01-29 11:33:00,66.0,-99.9,-100.00,ESE,120,2.0,11.0,-999,-99.99,,,-99.99,,2013-01-29 16:33:00,
2013-01-29 11:43:00,67.0,-99.9,-100.00,WSW,245,2.0,14.0,-999,-99.99,,,-99.99,,2013-01-29 16:43:00,
2013-01-29 11:53:00,67.0,-99.9,-100.00,WSW,245,12.0,18.0,-999,-99.99,,,-99.99,,2013-01-29 16:53:00,
2013-01-29 12:03:00,69.0,-99.9,-100.00,ESE,105,3.0,11.0,-999,-99.99,,,-99.99,,2013-01-29 17:03:00,
2013-01-29 12:13:00,69.0,-99.9,-100.00,SW,235,10.0,17.0,-999,-99.99,,,-99.99,,2013-01-29 17:13:00,
2013-01-29 12:22:00,69.0,-99.9,-100.00,SW,220,11.0,19.0,-999,-99.99,,,-99.99,,2013-01-29 17:22:00,
2013-01-29 12:33:00,69.0,-99.9,-100.00,WSW,250,12.0,16.0,-999,-99.99,,,-99.99,,2013-01-29 17:33:00,
2013-01-29 12:43:00,70.0,-99.9,-100.00,West,260,4.0,18.0,-999,-99.99,,,-99.99,,2013-01-29 17:43:00,
2013-01-29 12:53:00,71.0,-99.9,-100.00,SSW,195,4.0,14.0,-999,-99.99,,,-99.99,,2013-01-29 17:53:00,
2013-01-29 13:05:00,71.0,-99.9,-100.00,SW,225,9.0,15.0,-999,-99.99,,,-99.99,,2013-01-29 18:05:00,
2013-01-29 13:13:00,71.0,-99.9,-100.00,SW,225,9.0,15.0,-999,-99.99,,,-99.99,,2013-01-29 18:13:00,
2013-01-29 13:22:00,72.0,-99.9,-100.00,South,180,11.0,14.0,-999,-99.99,,,-99.99,,2013-01-29 18:22:00,
2013-01-29 13:34:00,72.0,-99.9,-100.00,SE,125,4.0,14.0,-999,-99.99,,,-99.99,,2013-01-29 18:34:00,
2013-01-29 13:43:00,72.0,-99.9,-100.00,South,170,7.0,14.0,-999,-99.99,,,-99.99,,2013-01-29 18:43:00,
2013-01-29 13:52:00,72.0,-99.9,-100.00,South,180,11.0,19.0,-999,-99.99,,,-99.99,,2013-01-29 18:52:00,
2013-01-29 14:03:00,72.0,-99.9,-100.00,SW,225,9.0,17.0,-999,-99.99,,,-99.99,,2013-01-29 19:03:00,
2013-01-29 14:12:00,73.0,-99.9,-100.00,SW,215,5.0,14.0,-999,-99.99,,,-99.99,,2013-01-29 19:12:00,
2013-01-29 14:23:00,72.0,-99.9,-100.00,South,185,9.0,19.0,-999,-99.99,,,-99.99,,2013-01-29 19:23:00,
2013-01-29 14:33:00,72.0,-99.9,-100.00,SSW,210,14.0,24.0,-999,-99.99,,,-99.99,,2013-01-29 19:33:00,
2013-01-29 14:42:00,72.0,-99.9,-100.00,South,180,8.0,19.0,-999,-99.99,,,-99.99,,2013-01-29 19:42:00,
2013-01-29 14:52:00,72.0,-99.9,-100.00,South,180,11.0,19.0,-999,-99.99,,,-99.99,,2013-01-29 19:52:00,
2013-01-29 15:03:00,72.0,-99.9,-100.00,SSW,210,9.0,21.0,-999,-99.99,,,-99.99,,2013-01-29 20:03:00,
2013-01-29 15:13:00,72.0,-99.9,-100.00,South,190,8.0,18.0,-999,-99.99,,,-99.99,,2013-01-29 20:13:00,
2013-01-29 15:23:00,73.0,-99.9,-100.00,WSW,240,8.0,19.0,-999,-99.99,,,-99.99,,2013-01-29 20:23:00,
2013-01-29 15:33:00,72.0,-99.9,-100.00,SSW,195,11.0,19.0,-999,-99.99,,,-99.99,,2013-01-29 20:33:00,
2013-01-29 15:43:00,72.0,-99.9,-100.00,South,180,11.0,18.0,-999,-99.99,,,-99.99,,2013-01-29 20:43:00,
2013-01-29 15:54:00,72.0,-99.9,-100.00,South,185,8.0,20.0,-999,-99.99,,,-99.99,,2013-01-29 20:54:00,
2013-01-29 16:03:00,72.0,-99.9,-100.00,SSE,165,10.0,17.0,-999,-99.99,,,-99.99,,2013-01-29 21:03:00,
2013-01-29 16:13:00,72.0,-99.9,-100.00,SSW,195,11.0,19.0,-999,-99.99,,,-99.99,,2013-01-29 21:13:00,
2013-01-29 16:23:00,71.0,-99.9,-100.00,South,185,11.0,19.0,-999,-99.99,,,-99.99,,2013-01-29 21:23:00,
2013-01-29 16:34:00,71.0,-99.9,-100.00,South,190,14.0,20.0,-999,-99.99,,,-99.99,,2013-01-29 21:34:00,
2013-01-29 16:43:00,71.0,-99.9,-100.00,South,185,10.0,20.0,-999,-99.99,,,-99.99,,2013-01-29 21:43:00,
2013-01-29 16:53:00,71.0,-99.9,-100.00,South,180,9.0,21.0,-999,-99.99,,,-99.99,,2013-01-29 21:53:00,
2013-01-29 17:03:00,71.0,-99.9,-100.00,SSW,195,9.0,20.0,-999,-99.99,,,-99.99,,2013-01-29 22:03:00,
2013-01-29 17:13:00,71.0,-99.9,-100.00,South,180,12.0,21.0,-999,-99.99,,,-99.99,,2013-01-29 22:13:00,
2013-01-29 17:22:00,70.0,-99.9,-100.00,SSW,195,8.0,19.0,-999,-99.99,,,-99.99,,2013-01-29 22:22:00,
2013-01-29 17:33:00,70.0,-99.9,-100.00,SSW,195,8.0,19.0,-999,-99.99,,,-99.99,,2013-01-29 22:33:00,
2013-01-29 17:43:00,70.0,-99.9,-100.00,SSW,210,10.0,19.0,-999,-99.99,,,-99.99,,2013-01-29 22:43:00,
2013-01-29 17:53:00,69.0,-99.9,-100.00,South,185,11.0,19.0,-999,-99.99,,,-99.99,,2013-01-29 22:53:00,
2013-01-29 18:03:00,69.0,-99.9,-100.00,South,190,9.0,18.0,-999,-99.99,,,-99.99,,2013-01-29 23:03:00,
2013-01-29 18:12:00,69.0,-99.9,-100.00,South,180,9.0,15.0,-999,-99.99,,,-99.99,,2013-01-29 23:12:00,
2013-01-29 18:23:00,68.0,-99.9,-100.00,South,185,10.0,15.0,-999,-99.99,,,-99.99,,2013-01-29 23:23:00,
2013-01-29 18:33:00,68.0,-99.9,-100.00,SE,130,4.0,14.0,-999,-99.99,,,-99.99,,2013-01-29 23:33:00,
2013-01-29 18:42:00,67.0,-99.9,-100.00,SE,140,7.0,11.0,-999,-99.99,,,-99.99,,2013-01-29 23:42:00,
2013-01-29 18:53:00,66.0,-99.9,-100.00,SSE,150,9.0,11.0,-999,-99.99,,,-99.99,,2013-01-29 23:53:00,
2013-01-29 19:03:00,65.0,-99.9,-100.00,SE,145,8.0,11.0,-999,-99.99,,,-99.99,,2013-01-30 00:03:00,
2013-01-29 19:12:00,64.0,-99.9,-100.00,SE,140,8.0,13.0,-999,-99.99,,,-99.99,,2013-01-30 00:12:00,
2013-01-29 19:22:00,63.0,-99.9,-100.00,ESE,120,9.0,13.0,-999,-99.99,,,-99.99,,2013-01-30 00:22:00,
2013-01-29 19:33:00,63.0,-99.9,-100.00,SE,125,7.0,11.0,-999,-99.99,,,-99.99,,2013-01-30 00:33:00,
2013-01-29 19:43:00,63.0,-99.9,-100.00,SE,130,6.0,11.0,-999,-99.99,,,-99.99,,2013-01-30 00:43:00,
2013-01-29 19:53:00,63.0,-99.9,-100.00,SE,140,7.0,10.0,-999,-99.99,,,-99.99,,2013-01-30 00:53:00,
2013-01-29 20:02:00,62.0,-99.9,-100.00,SSE,150,6.0,11.0,-999,-99.99,,,-99.99,,2013-01-30 01:02:00,
2013-01-29 20:12:00,62.0,-99.9,-100.00,SE,145,6.0,9.0,-999,-99.99,,,-99.99,,2013-01-30 01:12:00,
2013-01-29 20:23:00,62.0,-99.9,-100.00,SE,145,5.0,8.0,-999,-99.99,,,-99.99,,2013-01-30 01:23:00,
2013-01-29 20:32:00,62.0,-99.9,-100.00,SSE,165,4.0,8.0,-999,-99.99,,,-99.99,,2013-01-30 01:32:00,
2013-01-29 20:43:00,62.0,-99.9,-100.00,SSE,150,8.0,10.0,-999,-99.99,,,-99.99,,2013-01-30 01:43:00,
2013-01-29 20:52:00,62.0,-99.9,-100.00,SSE,150,8.0,10.0,-999,-99.99,,,-99.99,,2013-01-30 01:52:00,
2013-01-29 21:03:00,62.0,-99.9,-100.00,SSE,155,9.0,12.0,-999,-99.99,,,-99.99,,2013-01-30 02:03:00,
2013-01-29 21:13:00,62.0,-99.9,-100.00,SSE,155,9.0,14.0,-999,-99.99,,,-99.99,,2013-01-30 02:13:00,
2013-01-29 21:22:00,62.0,-99.9,-100.00,SE,145,8.0,11.0,-999,-99.99,,,-99.99,,2013-01-30 02:22:00,
2013-01-29 21:33:00,62.0,-99.9,-100.00,SE,145,9.0,10.0,-999,-99.99,,,-99.99,,2013-01-30 02:33:00,
2013-01-29 21:42:00,62.0,-99.9,-100.00,SSE,160,8.0,11.0,-999,-99.99,,,-99.99,,2013-01-30 02:42:00,
2013-01-29 21:53:00,62.0,-99.9,-100.00,SSE,160,8.0,11.0,-999,-99.99,,,-99.99,,2013-01-30 02:53:00,
2013-01-29 22:03:00,63.0,-99.9,-100.00,SSE,150,8.0,9.0,-999,-99.99,,,-99.99,,2013-01-30 03:03:00,
2013-01-29 22:12:00,62.0,-99.9,-100.00,SE,145,8.0,10.0,-999,-99.99,,,-99.99,,2013-01-30 03:12:00,
2013-01-29 22:22:00,62.0,-99.9,-100.00,SSE,155,8.0,11.0,-999,-99.99,,,-99.99,,2013-01-30 03:22:00,
2013-01-29 22:33:00,62.0,-99.9,-100.00,SE,145,9.0,10.0,-999,-99.99,,,-99.99,,2013-01-30 03:33:00,
2013-01-29 22:42:00,63.0,-99.9,-100.00,SSE,150,9.0,11.0,-999,-99.99,,,-99.99,,2013-01-30 03:42:00,
2013-01-29 22:52:00,63.0,-99.9,-100.00,SSE,155,9.0,11.0,-999,-99.99,,,-99.99,,2013-01-30 03:52:00,
2013-01-29 23:03:00,63.0,-99.9,-100.00,SSE,150,10.0,11.0,-999,-99.99,,,-99.99,,2013-01-30 04:03:00,
2013-01-29 23:12:00,63.0,-99.9,-100.00,SSE,150,9.0,12.0,-999,-99.99,,,-99.99,,2013-01-30 04:12:00,
2013-01-29 23:22:00,64.0,-99.9,-100.00,SSE,150,8.0,11.0,-999,-99.99,,,-99.99,,2013-01-30 04:22:00,
2013-01-29 23:32:00,65.0,-99.9,-100.00,SSE,165,9.0,12.0,-999,-99.99,,,-99.99,,2013-01-30 04:32:00,
2013-01-29 23:42:00,65.0,-99.9,-100.00,SSE,165,9.0,13.0,-999,-99.99,,,-99.99,,2013-01-30 04:42:00,
2013-01-29 23:52:00,65.0,-99.9,-100.00,South,170,9.0,13.0,-999,-99.99,,,-99.99,,2013-01-30 04:52:00,